Regional Weather Roundup
Issued by NWS Bismarck, ND

Home | Current Version | Previous Version | Text Only | Print | Product List | Glossary On
Versions: 1 2 3 4 5 6 7 8 9 10 11 12 13 14 15 16 17 18 19 20 21 22 23 24 25 26 27 28 29 30 31 32 33 34 35 36 37 38 39 40 41 42 43 44 45 46 47 48 49 50
000
ASUS43 KBIS 231820
RWRBIS

NWR BROADCAST TEXT
NATIONAL WEATHER SERVICE BISMARCK ND
100 PM CDT WED APR 23 2014

NOTE: "FAIR" INDICATES FEW OR NO CLOUDS BELOW 12,000 FEET WITH NO
SIGNIFICANT WEATHER AND/OR OBSTRUCTIONS TO VISIBILITY.


CITY           SKY/WX    TMP DP  RH WIND       PRES   REMARKS
WILLISTON      CLOUDY    58  38  47 SE13G22   29.44S
MINOT          LGT RAIN  48  42  80 E23G32    29.56F
MINOT AFB      CLOUDY    48  45  87 SE23G32   29.56F
BISMARCK       LGT RAIN  53  42  66 SE22G32   29.56S
DICKINSON      CLOUDY    57  37  47 S14       29.43F
GARRISON         N/A     57  39  51 SE24G33   29.50F
HETTINGER ARPT CLOUDY    56  43  61 W22G30    29.52R
JAMESTOWN      PTSUNNY   49  43  80 SE26G44   29.70F
CARRINGTON     MOCLDY    48  46  93 SE37G46   29.67F
CROSBY         CLOUDY    50  39  66 SE20G31   29.49R
HARVEY         MOCLDY    52  45  76 SE28G38   29.63F
HAZEN          MOCLDY    54  39  58 SE22G30   29.53R
LINTON         FAIR      55  39  54 SE31G45   29.56S
MANDAN         FAIR      52  41  66 SE24G35   29.56R
OAKES          CLOUDY    48  39  71 SE26G38   29.71S
RUGBY          FAIR      45  45 100 SE26G35   29.66S
STANLEY        FAIR      50  45  81 SE21G33   29.49F
TIOGA          MOCLDY    54  37  54 SE22G37   29.50S
WATFORD CITY   LGT RAIN  55  39  54 SE13      29.42S
$$

CITY           SKY/WX    TMP DP  RH WIND       PRES   REMARKS
GRAND FORKS    LGT RAIN  45  41  87 SE20G28   29.87F FOG
GRAND FORKS AF LGT RAIN  45  45 100 SE16      29.86F
DEVILS LAKE    CLOUDY    43  37  81 SE23G31   29.74F
FARGO          RAIN      44  41  89 SE17G28   29.85F FOG
CANDO          MOCLDY    43  41  93 SE21G26   29.76F
CAVALIER       LGT RAIN  45  39  81 S12       29.88S
GRAFTON        LGT RAIN  43  41  93 SE20G28   29.88F
GWINNER        CLOUDY    45  43  93 SE24G40   29.75F
LANGDON        MIX PCPN  41  39  93 SE18G26   29.82F
ROLLA          LGT RAIN  41  41 100 SE24      29.76S
WALHALLA         N/A     45  45 100 SE17      29.88R FOG
$$

CITY           SKY/WX    TMP DP  RH WIND       PRES   REMARKS
ABERDEEN       PTSUNNY   51  38  60 SE29G41   29.67S
MOBRIDGE       CLOUDY    55  40  56 SE24      29.54R
BUFFALO          N/A     51  41  68 NW25G36   29.50R
RAPID CITY     CLOUDY    64  45  49 N20       29.53R
GLASGOW        CLOUDY    51  33  50 NW28G37   29.50F
SIDNEY         CLOUDY    48  41  76 W24G31    29.48R
WOLF POINT     CLOUDY    49  38  65 NW20G31   29.51R
GLENDIVE       CLOUDY    43  37  81 W24       29.56R
MILES CITY     LGT RAIN  44  37  76 W24G35    29.66R
BAKER          CLOUDY    46  36  68 W29G41    29.58R
$$

CITY           SKY/WX    TMP DP  RH WIND       PRES   REMARKS
BILLINGS       CLOUDY    51  21  30 W25G35    29.69F
GREAT FALLS    MOSUNNY   48  23  37 W26G38    29.66R
REGINA         LGT RAIN  45  43  93 E22       29.50F
ESTEVAN        LGT RAIN  48  43  81 SE26G33   29.50F
$$




USA.gov is the U.S. government's official web portal to all federal, state and local government web resources and services.